Home > Time Zones > World Clock > Weather > India > Surat > Past weeks

Flag for India Weather past 2 weeks in Surat, Gujarat, India

Now
97 °F

Clear.


Feels Like: 96 °F
Forecast: 80 / 101 °F
Wind: 3 mph from North

Location: Ahmadabad Airport

Current Time: Apr 19, 2015 at 9:45:56 PM

Latest Report: Apr 19, 2015 at 8:10 PM


Visibility: 2 mi

Pressure: 29.65 "Hg

Humidity: 27%

Dew point: 57 °F

Location of SuratLocation

Historic Weather in Surat — Graph

°F

Surat temperature yesterday

Maximum temperature yesterday: 113 °F (at 2:40 PM)
Minimum temperature yesterday: 84 °F (at 7:10 AM)
Average temperature yesterday: 98 °F

Past Weeks' High & Low Weather Summary

 TemperatureHumidityPressure
High113 °F (Apr 18, 2:40 PM)83% (Apr 12, 5:40 PM)29.95 "Hg (Apr 12, 5:40 PM)
Low68 °F (Apr 12, 5:40 PM)13% (Apr 18, 2:40 PM)29.56 "Hg (Apr 18, 5:10 PM)
Average90 °F42%29.77 "Hg
* Reported Apr 4 7:40 PM — Apr 19 8:10 PM, Surat, Weather by CustomWeather, © 2015

Note: Actual official high and low records may vary slightly from our data, if they occured in-between our weather recording intervals... More about our weather records

Advertising

Surat weather history for previous 24 hours

 ConditionsComfort  
Time TempWeatherWind HumidityBarometerVisibility
8:10 PM
Sun, Apr 19
97 °FClear.3 mph27%29.65 "Hg2 mi
7:40 PM100 °FClear.2 mph22%29.65 "Hg2 mi
6:40 PM108 °FClear.3 mph17%29.62 "Hg4 mi
6:10 PM109 °FClear.5 mph17%29.62 "Hg4 mi
5:40 PM111 °FClear.3 mph17%29.59 "Hg4 mi
5:10 PM113 °FClear.3 mph16%29.59 "Hg4 mi
4:40 PM113 °FClear.6 mph13%29.59 "Hg4 mi
4:10 PM113 °FClear.3 mph14%29.62 "Hg4 mi
3:40 PM111 °FClear.3 mph17%29.62 "Hg4 mi
2:40 PM111 °FClear.3 mph17%29.65 "Hg4 mi
2:10 PM109 °FClear.7 mph19%29.65 "Hg4 mi
1:10 PM106 °FClear.5 mph22%29.71 "Hg3 mi
12:40 PM104 °FClear.3 mph23%29.74 "Hg3 mi
12:10 PM102 °FClear.6 mph24%29.74 "Hg3 mi
11:40 AM100 °FClear.5 mph29%29.74 "Hg3 mi
10:40 AM95 °FClear.5 mph34%29.77 "Hg2 mi
10:10 AM93 °FClear.5 mph36%29.77 "Hg2 mi
9:40 AM90 °FClear.6 mph41%29.77 "Hg2 mi
8:40 AM86 °FClear.5 mph43%29.77 "Hg1 mi
8:10 AM84 °FClear.6 mph43%29.77 "Hg1 mi
7:40 AM82 °FPassing clouds.3 mph48%29.74 "Hg2 mi
6:10 AM81 °FPassing clouds.No wind48%29.71 "Hg2 mi
5:10 AM81 °FClear.No wind45%29.68 "Hg2 mi
4:40 AM82 °FClear.3 mph42%29.68 "Hg2 mi
3:40 AM84 °FClear.5 mph37%29.65 "Hg2 mi
3:10 AM86 °FClear.5 mph33%29.68 "Hg2 mi
2:40 AM88 °FClear.6 mph31%29.68 "Hg2 mi
2:10 AM88 °FClear.5 mph29%29.68 "Hg2 mi
1:40 AM88 °FClear.6 mph29%29.68 "Hg2 mi
1:10 AM88 °FClear.5 mph27%29.68 "Hg2 mi
12:40 AM86 °FClear.6 mph29%29.71 "Hg2 mi
12:10 AM88 °FClear.7 mph25%29.71 "Hg2 mi
11:40 PM
Sat, Apr 18
90 °FClear.6 mph24%29.71 "Hg2 mi
11:10 PM91 °FClear.6 mph23%29.71 "Hg2 mi
10:40 PM91 °FClear.7 mph24%29.71 "Hg2 mi
9:40 PM93 °FClear.6 mph34%29.68 "Hg2 mi
Weather by CustomWeather, © 2015

See weather overviewHow to use our weather pages